Notices

What's New in latest Release from April 7th, 2021:

- Updated Glossary, including Speed of Maximum Gust, and Total Hourly Precipitation

- Updated national and regional climate services offices contacts and prices information

- Addition of station inventory lists for 1981-2010, 1971-2000, and 1961-1990 Normals.

If you haven't already, please take our survey and provide feedback about our website: https://eccc.sondage-survey.ca/f/LanguageSelection.aspx?s=442ca660-fcf1-47c0-95a9-59707d6fd709

Hourly Data Report for March 04, 2010

HALIFAX STANFIELD INT'L A
NOVA SCOTIA

44°52'48.060" N
63°30'00.050" W
145.40 m
8202250
71395
YHZ

Download Data

Hourly Data (March 2010)
Hourly Data Report for March 4, 2010
TIME
LST
Temp Definition
°C
Dew Point Definition
°C
Rel Hum Definition
%
Precip. Amount Definition
mm

Wind Dir Definition
10's deg

Wind Spd Definition
km/h
Visibility Definition
km
Stn Press Definition
kPa
Hmdx Definition


Wind Chill Definition


Weather Definition


00:00 -1.9 -3.8 87   2 20 19.3 98.29   -8 Snow Showers
01:00 -2.0 -3.6 89   3 22 12.9 98.22   -8 Snow Showers
02:00 -2.0 -3.5 89   2 22 19.3 98.15   -8 Snow Showers
03:00 -1.9 -3.1 91   1 20 24.1 98.11   -8 Cloudy
04:00 -1.6 -2.7 92   1 22 24.1 98.05   -8 Cloudy
05:00 -1.4 -2.3 94   1 24 24.1 98.01   -8 Cloudy
06:00 -0.7 -1.7 93   1 22 24.1 97.99   -6 Cloudy
07:00 -0.3 -1.0 95   1 26 8.0 97.94   -6 Freezing Drizzle,Fog
08:00 0.2 -1.2 90   2 30 24.1 97.93     Cloudy
09:00 0.3 -1.5 88   3 32 24.1 97.88     Cloudy
10:00 0.6 -1.6 85   3 28 24.1 97.90     Cloudy
11:00 0.9 -1.7 83   2 37 19.3 97.88     Snow
12:00 0.8 -1.6 84   3 32 16.1 97.87     Snow
13:00 1.0 -1.7 82   2 39 24.1 97.84     Cloudy
14:00 0.9 -1.8 82   2 33 19.3 97.85     Snow
15:00 0.8 -1.7 83   2 43 12.9 97.88     Snow
16:00 0.5 -2.5 80   2 43 16.1 97.95     Snow Showers
17:00 -0.1 -2.6 83   2 43 12.9 98.03   -8 Snow Showers
18:00 -0.5 -2.8 84   2 43 19.3 98.11   -8 Snow Showers
19:00 -0.7 -3.2 83   2 46 19.3 98.18   -9 Snow Showers
20:00 -1.1 -3.2 86   1 39 19.3 98.28   -9 Snow Showers
21:00 -1.3 -3.5 85   1 39 19.3 98.33   -9 Snow Showers
22:00 -1.5 -3.8 84   1 41 19.3 98.37   -9 Snow Showers
23:00 -1.6 -4.3 82   2 37 24.1 98.40   -9 Snow Showers

Notes on Data Quality.

Legend

  • E = Estimated
  • M = Missing
  • NA = Not Available*
  • [empty] = Indicates an unobserved value
Date modified: